FW2970 Weather Reports


time (UTC)temp
F
wind
direction
speed
knots
gust
knots
rain 1hr
in
rain 24hr
in
rain mn
in
humidity
%
barometer
mb
20260507074554 50 233 3.5 7.0 0.00 0.03 0.03 97 1006.7
20260507073057 50 205 6.1 7.0 0.00 0.03 0.03 97 1006.8
20260507071551 51 206 6.1 8.7 0.00 0.03 0.03 97 1007.0
20260507064550 52 229 7.8 10.4 0.00 0.03 0.03 97 1007.3
20260507063053 52 236 6.1 8.7 0.00 0.03 0.03 97 1007.1
20260507061546 52 244 7.0 11.3 0.00 0.03 0.03 97 1007.3
20260507054544 52 237 5.2 9.6 0.00 0.03 0.03 97 1008.1
20260507053044 52 218 4.3 10.4 0.00 0.03 0.03 97 1007.8
20260507051542 52 214 7.0 12.2 0.00 0.03 0.03 97 1008.1
20260507044550 52 216 11.3 17.4 0.00 0.03 0.03 97 1008.3
20260507043037 53 215 11.3 16.5 0.00 0.03 0.03 96 1008.3
20260507041535 54 212 7.8 13.9 0.00 0.03 0.03 96 1008.4
20260507034539 54 229 10.4 19.1 0.00 0.03 0.03 97 1008.7
20260507033041 54 230 11.3 18.2 0.00 0.03 0.03 96 1008.7
20260507031535 54 212 15.6 22.6 0.00 0.03 0.03 96 1008.5
20260507024535 54 229 11.3 17.4 0.00 0.03 0.03 96 1008.6
20260507023029 54 221 13.9 20.0 0.00 0.03 0.03 95 1008.8
20260507021544 54 219 13.9 19.1 0.00 0.03 0.03 95 1009.2
20260507014526 55 214 15.6 22.6 0.00 0.03 0.03 95 1009.4
20260507013032 55 224 15.6 22.6 0.00 0.03 0.03 95 1009.4
20260507011530 55 217 17.4 25.2 0.00 0.03 0.03 95 1009.4
20260507004524 56 217 20.9 28.7 0.00 0.03 0.03 95 1009.3
20260507003023 55 220 13.9 21.7 0.00 0.03 0.03 96 1009.4
20260507001523 55 233 15.6 21.7 0.00 0.03 0.03 95 1009.5
20260506234520 56 205 20.0 29.5 0.02 0.03 0.03 94 1009.3
20260506233019 56 217 15.6 22.6 0.02 0.03 0.03 95 1009.1
20260506231523 55 215 20.0 27.8 0.02 0.03 0.03 94 1009.2
20260506224516 55 210 18.2 25.2 0.01 0.01 0.01 93 1009.8
20260506223017 56 198 19.1 26.1 0.01 0.01 0.01 92 1009.9
20260506221511 57 214 20.9 31.3 0.01 0.01 0.01 89 1010.0
20260506214511 58 208 18.2 23.5 0.00 0.00 0.00 88 1009.9
20260506213007 57 198 19.1 23.5 0.00 0.00 0.00 88 1010.0
20260506211505 58 204 19.1 25.2 0.00 0.00 0.00 87 1010.1
20260506204505 58 179 19.1 25.2 0.00 0.00 0.00 86 1010.1
20260506203103 58 180 20.0 25.2 0.00 0.00 0.00 86 1010.4
20260506201507 58 188 21.7 27.8 0.00 0.00 0.00 86 1010.3
20260506194623 58 185 20.0 26.9 0.00 0.00 0.00 86 1010.7
20260506193059 58 213 19.1 26.1 0.00 0.00 0.00 86 1011.1
20260506191600 58 205 20.0 28.7 0.00 0.00 0.00 85 1011.0
20260506190203 58 189 20.9 27.8 0.00 0.00 0.00 85 1010.9
20260506184605 58 195 21.7 29.5 0.00 0.00 0.00 85 1011.1
20260506183103 58 202 20.9 26.9 0.00 0.00 0.00 85 1011.6
20260506181558 58 188 21.7 27.8 0.00 0.00 0.00 86 1011.9
20260506180151 58 212 20.9 27.8 0.00 0.00 0.00 85 1012.4
20260506174551 59 195 21.7 29.5 0.00 0.00 0.00 84 1012.6
20260506173055 60 205 22.6 27.8 0.00 0.00 0.00 84 1012.5
20260506171550 59 193 20.9 29.5 0.00 0.00 0.00 84 1012.6
20260506170147 59 210 22.6 30.4 0.00 0.00 0.00 85 1013.1
20260506164550 59 198 23.5 28.7 0.00 0.00 0.00 84 1013.2
20260506163043 59 188 23.5 30.4 0.00 0.00 0.00 84 1013.2
20260506161550 59 210 22.6 33.9 0.00 0.00 0.00 85 1013.4
20260506160142 59 214 22.6 29.5 0.00 0.00 0.00 84 1013.6
20260506154541 59 204 21.7 33.9 0.00 0.00 0.00 84 1013.8
20260506153040 59 216 25.2 31.3 0.00 0.00 0.00 84 1014.0
20260506151558 59 207 20.9 26.1 0.00 0.00 0.00 85 1014.0
20260506150139 59 207 20.0 27.8 0.00 0.00 0.00 85 1014.1
20260506144536 58 214 19.1 27.8 0.00 0.00 0.00 86 1013.9
20260506143045 59 208 21.7 28.7 0.00 0.00 0.00 85 1013.7
20260506141534 58 204 20.9 28.7 0.00 0.00 0.00 86 1013.7
20260506140134 59 206 25.2 31.3 0.00 0.00 0.00 85 1014.0
20260506134532 59 220 24.3 31.3 0.00 0.00 0.00 85 1014.0
20260506133031 59 182 23.5 28.7 0.00 0.00 0.00 85 1014.0
20260506131529 58 204 21.7 28.7 0.00 0.00 0.00 86 1013.9
20260506130143 58 199 21.7 26.9 0.00 0.00 0.00 86 1013.8
20260506124526 58 229 20.0 28.7 0.00 0.00 0.00 86 1014.0
20260506123025 58 191 22.6 28.7 0.00 0.00 0.00 87 1013.8
20260506121525 57 216 20.9 26.1 0.00 0.00 0.00 88 1014.0
20260506120122 57 205 20.9 26.1 0.00 0.00 0.00 89 1014.2
20260506114530 56 207 20.0 26.1 0.00 0.00 0.00 89 1014.3
20260506113021 57 208 21.7 25.2 0.00 0.00 0.00 89 1014.2
20260506111520 57 211 20.9 26.1 0.00 0.00 0.00 88 1014.2
20260506110119 57 207 20.9 27.8 0.00 0.00 0.00 89 1014.0
20260506104518 56 217 18.2 23.5 0.00 0.00 0.00 90 1014.0
20260506103019 56 221 16.5 21.7 0.00 0.00 0.00 90 1014.1
20260506101532 56 212 15.6 22.6 0.00 0.00 0.00 91 1014.0
20260506100118 55 229 17.4 21.7 0.00 0.00 0.00 92 1014.2
20260506094518 55 217 16.5 21.7 0.00 0.00 0.00 92 1014.2
20260506093016 55 199 15.6 19.1 0.00 0.00 0.00 92 1014.3
20260506091520 55 224 15.6 20.0 0.00 0.00 0.00 92 1014.2
20260506090115 54 203 15.6 20.9 0.00 0.00 0.00 92 1014.2
20260506084519 54 212 15.6 23.5 0.00 0.00 0.00 92 1014.4
20260506083013 55 217 15.6 21.7 0.00 0.00 0.00 92 1014.4
20260506081614 55 219 13.0 18.2 0.00 0.00 0.00 93 1014.6
20260506080112 55 207 16.5 21.7 0.00 0.00 0.00 93 1014.5